Lid_Strength_Index
2 2 3 3 3 2 2 3 3 3 3 3 3 3 3 3 3 4 9 5 4 -3 -1 2 2 2 2 4 4 4 12 14 12 12 10 7 8 5 4 6 5 4 5 3 3
2 2 3 3 3 2 2 2 2 3 3 3 3 3 2 2 4 8 2 -3 -4 -4 3 5 6 3 6 6 6 8 12 12 8 8 9 7 7 7 7 7 6 5 3 3 3
2 2 2 3 3 3 2 2 2 3 3 3 3 2 2 3 6 6 -2 -4 -3 -1 4 6 5 4 7 5 6 8 11 8 8 6 6 7 7 6 7 8 6 7 5 4 4
2 2 2 2 3 3 3 2 2 3 3 3 3 2 2 5 9 3 -2 -2 -3 0 4 3 4 6 8 8 6 10 7 7 7 6 6 8 6 7 6 7 4 4 4 4 4
2 2 3 3 3 3 3 3 2 2 3 3 2 2 5 9 7 2 -2 -1 1 4 4 4 5 6 8 7 7 9 8 6 6 6 6 6 8 7 6 5 4 4 4 4 4
3 3 3 3 3 3 3 3 3 3 2 2 2 2 6 11 5 0 2 3 5 4 3 3 5 4 6 7 8 7 7 7 6 7 6 8 7 7 6 4 5 4 5 4 4
3 3 3 3 3 3 3 3 3 3 2 2 2 2 6 8 2 4 6 6 4 2 3 2 3 5 5 8 6 6 9 7 7 8 7 6 9 8 5 5 6 5 5 5 4
3 3 3 3 3 3 3 3 3 3 2 2 1 4 9 4 4 5 7 4 1 1 2 2 3 4 6 5 7 9 9 13 9 8 7 7 13 7 5 6 6 6 5 5 4
3 3 3 3 3 3 3 3 3 2 2 1 5 5 8 3 4 5 6 3 2 3 3 2 3 6 6 10 12 11 15 13 11 8 8 9 11 7 6 6 7 6 6 5 5
3 3 3 4 4 5 5 4 3 3 2 1 2 7 6 6 5 4 1 2 4 4 4 5 6 9 9 11 16 14 14 13 13 9 9 10 10 8 6 6 7 7 6 6 5
3 3 3 4 4 5 6 6 8 8 6 9 8 6 5 5 3 5 2 3 3 5 9 7 10 12 11 10 10 11 12 13 11 8 10 10 10 9 7 7 7 7 7 6 5
3 3 4 4 4 5 7 7 5 4 8 5 5 6 6 6 8 4 2 6 7 9 8 9 11 8 8 9 10 11 12 13 10 8 10 11 11 8 7 7 7 7 7 6 5
4 5 4 5 6 7 8 6 5 5 9 6 6 7 7 5 6 8 4 5 8 9 9 11 9 7 8 9 11 11 12 12 12 9 9 10 13 10 8 7 6 6 6 5 5
4 5 6 7 9 8 8 7 7 6 11 9 9 7 6 6 9 6 3 5 8 9 9 9 7 8 9 10 10 14 9 9 10 12 16 10 18 12 10 9 8 7 6 6 5
5 5 7 8 9 7 5 6 7 7 16 7 8 6 7 8 10 8 5 5 9 9 9 10 9 10 10 10 9 11 8 9 10 13 14 13 16 13 10 11 9 7 6 5 5
5 6 7 9 9 7 6 7 7 11 16 9 8 9 10 10 9 8 8 4 5 9 9 9 6 8 8 7 8 7 9 10 11 14 18 15 15 15 12 11 9 7 6 5 5
5 7 7 5 7 5 5 7 12 15 8 11 11 10 11 11 10 10 8 9 10 12 12 10 9 7 7 9 8 9 12 18 18 19 19 14 16 14 10 8 7 7 6 5 5
6 7 8 6 6 5 7 9 15 10 10 11 11 13 11 11 11 10 11 10 9 10 11 12 13 9 7 9 10 11 12 17 21 21 19 14 17 14 8 7 6 5 5 5 5
6 7 7 5 6 6 8 12 12 10 8 9 11 14 13 11 11 11 11 11 9 9 11 13 12 7 7 7 8 11 14 11 16 16 18 16 14 10 8 8 7 7 6 6 5
7 5 5 3 5 7 10 12 10 7 7 8 11 10 14 12 12 12 11 9 9 7 9 10 13 10 8 7 8 9 9 15 15 20 21 18 16 16 11 9 7 7 6 6 5
6 7 5 5 5 8 11 11 8 7 6 9 10 11 10 11 12 12 12 9 8 9 8 10 13 12 9 10 11 11 13 12 13 15 19 20 17 11 10 9 8 7 6 6 5
7 8 4 5 8 10 11 10 8 8 7 7 8 9 10 10 10 10 11 8 7 8 11 10 13 14 13 10 7 9 11 12 14 17 16 16 15 8 8 8 7 7 6 5 5
10 7 4 5 10 11 9 8 7 8 7 7 9 8 9 10 11 9 9 6 6 8 11 10 13 15 14 12 10 11 10 11 11 13 16 17 14 8 8 8 7 7 6 6 6
9 12 11 9 10 12 12 11 11 8 9 10 10 10 9 9 9 10 9 7 6 6 6 8 14 14 15 13 12 11 10 10 11 14 14 14 11 9 9 8 7 7 6 6 6
10 12 13 14 13 12 13 11 11 12 11 11 12 12 12 12 12 11 9 8 7 6 8 10 13 13 13 11 11 11 10 10 12 12 13 11 11 9 8 8 8 6 6 6 6
13 13 12 13 13 14 14 13 12 12 11 13 14 12 12 13 14 14 12 12 10 8 10 9 12 12 12 9 9 11 9 9 9 9 10 10 10 8 7 8 8 7 7 7 6
11 11 12 12 13 14 14 13 11 11 10 9 10 13 13 12 12 12 12 11 10 11 11 11 12 12 14 11 11 12 11 10 9 9 10 11 9 7 7 8 7 7 6 6 6